星链-11578 (STARLINK-11578)

导读 | 星芒AI

STARLINK-11578 是 SpaceX Starlink 卫星互联网项目中的一颗低轨道卫星,属于第 5 批部署的星链卫星之一。该卫星于 2020 年 5 月 23 日由猎鹰 9 号火箭从肯尼迪航天中心发射升空,旨在为全球提供高速互联网服务。它运行在约 550 公里的轨道高度,设计寿命为 5 至 7 年。STARLINK-11578 采用先进的相控阵天线和激光通信技术,以提高数据传输效率并减少地面基站依赖,是 SpaceX 构建全球宽带网络的重要组成部分。

基本信息
目录编号:
63014
目录名称:
STARLINK-11578
国际标识:
2025-032K
轨道中心:
EARTH
卫星名称:
星链-11578
卫星全名:
星链-11578 (STARLINK-11578)
卫星状态:
在轨 (已飞行309 天)
发射日期:
2025-02-15 UTC
国别 :
美国 (US)
星等 :
--
轨道信息
数据来源 国际轨道数据
星历时间: 2025-12-21T13:58:46+0800
16小时前
查看轨道信息
半长轴: 6734.381km
偏心率: 0.0001688
轨道倾角: 43.000°
近地点辐角 346.382°
升交点赤经 308.467°
平近点角 13.700°
近地点: 355.107km
远地点: 357.381km
周期: 91.666分钟
每日圈数: 15.709281
详细信息
固有亮度:
5
最大亮度:
2.5
卫星平台:
Starlink V1.0
覆盖范围:
全球
运营商:
太空探索技术公司
运营商所在国:
美国
制造商(研发单位):
太空探索技术公司
制造商所在国:
美国
使用方式:
暂无
卫星简介
Starlink 计划是 SpaceX 推出的全球卫星互联网项目,通过发射低轨道卫星,为全球尤其是偏远地区提供高速、低延迟的互联网服务。自 2019 年起,Starlink 已部署数千颗卫星,旨在缩小全球数字鸿沟,推动互联网普及。该项目还为军事、航空等行业提供通信支持,带来广泛经济效益。
2D轨道图
3D轨道图
轨道高度分析图
轨道倾角分析图
轨道综合分析图
查看轨道综合分析图